Time,TemperatureF,DewpointF,PressureIn,WindDirection,WindDirectionDegrees,WindSpeedMPH,WindSpeedGustMPH,Humidity,HourlyPrecipIn,Conditions,Clouds,dailyrainin,SoftwareType,DateUTC
2013-05-17 00:05:00,60.8,50.0,29.86,SSW,200,3.0,-999.0,68,-99.99,,,0.00,weatherlink.com 1.10,2013-05-17 05:05:00,
2013-05-17 00:20:00,60.7,50.0,29.87,SSW,199,0.0,-999.0,68,-99.99,,,0.00,weatherlink.com 1.10,2013-05-17 05:20:00,
2013-05-17 00:35:00,60.8,50.0,29.87,SSW,199,0.0,-999.0,68,-99.99,,,0.00,weatherlink.com 1.10,2013-05-17 05:35:00,
2013-05-17 00:50:00,61.1,50.0,29.86,SSW,199,0.0,-999.0,68,-99.99,,,0.00,weatherlink.com 1.10,2013-05-17 05:50:00,
2013-05-17 01:05:00,61.1,50.0,29.87,SSW,199,0.0,-999.0,68,-99.99,,,0.00,weatherlink.com 1.10,2013-05-17 06:05:00,
2013-05-17 01:20:00,61.4,51.0,29.86,SSW,199,0.0,-999.0,69,-99.99,,,0.00,weatherlink.com 1.10,2013-05-17 06:20:00,
2013-05-17 01:35:00,61.6,51.0,29.86,SSW,199,0.0,-999.0,69,-99.99,,,0.00,weatherlink.com 1.10,2013-05-17 06:35:00,
2013-05-17 01:50:00,61.6,51.0,29.86,SSW,199,0.0,-999.0,69,-99.99,,,0.00,weatherlink.com 1.10,2013-05-17 06:50:00,
2013-05-17 02:05:00,61.5,51.0,29.85,SSW,199,0.0,-999.0,69,-99.99,,,0.00,weatherlink.com 1.10,2013-05-17 07:05:00,
2013-05-17 02:20:00,61.5,51.0,29.85,SSW,199,0.0,-999.0,69,-99.99,,,0.00,weatherlink.com 1.10,2013-05-17 07:20:00,
2013-05-17 02:35:00,61.5,51.0,29.84,SSW,199,0.0,-999.0,69,-99.99,,,0.00,weatherlink.com 1.10,2013-05-17 07:35:00,
2013-05-17 02:50:00,61.6,51.0,29.84,SSW,199,0.0,-999.0,69,-99.99,,,0.00,weatherlink.com 1.10,2013-05-17 07:50:00,
2013-05-17 03:05:00,61.6,51.0,29.84,SSW,199,0.0,-999.0,69,-99.99,,,0.00,weatherlink.com 1.10,2013-05-17 08:05:00,
2013-05-17 03:20:00,61.6,51.0,29.84,SSW,199,0.0,-999.0,69,-99.99,,,0.00,weatherlink.com 1.10,2013-05-17 08:20:00,
2013-05-17 03:35:00,61.6,51.0,29.84,SSW,199,0.0,-999.0,69,-99.99,,,0.00,weatherlink.com 1.10,2013-05-17 08:35:00,
2013-05-17 03:50:00,61.5,51.0,29.85,SSW,199,0.0,-999.0,69,-99.99,,,0.00,weatherlink.com 1.10,2013-05-17 08:50:00,
2013-05-17 04:05:00,61.5,51.0,29.85,SSW,199,0.0,-999.0,69,-99.99,,,0.00,weatherlink.com 1.10,2013-05-17 09:05:00,
2013-05-17 04:20:00,61.7,51.0,29.85,SSW,199,0.0,-999.0,69,-99.99,,,0.00,weatherlink.com 1.10,2013-05-17 09:20:00,
2013-05-17 04:35:00,61.8,51.0,29.86,SSW,199,0.0,-999.0,69,-99.99,,,0.00,weatherlink.com 1.10,2013-05-17 09:35:00,
2013-05-17 04:50:00,61.9,52.0,29.86,SSW,199,0.0,-999.0,69,-99.99,,,0.00,weatherlink.com 1.10,2013-05-17 09:50:00,
2013-05-17 05:05:00,61.9,52.0,29.87,SSW,199,0.0,-999.0,69,-99.99,,,0.00,weatherlink.com 1.10,2013-05-17 10:05:00,
2013-05-17 05:20:00,61.9,52.0,29.87,SSW,199,0.0,-999.0,69,-99.99,,,0.00,weatherlink.com 1.10,2013-05-17 10:20:00,
2013-05-17 05:35:00,61.8,51.0,29.87,SSW,199,0.0,-999.0,69,-99.99,,,0.00,weatherlink.com 1.10,2013-05-17 10:35:00,
2013-05-17 05:50:00,61.8,51.0,29.87,SSW,199,0.0,-999.0,69,-99.99,,,0.00,weatherlink.com 1.10,2013-05-17 10:50:00,
2013-05-17 06:05:00,61.8,51.0,29.88,SSW,199,0.0,-999.0,69,-99.99,,,0.00,weatherlink.com 1.10,2013-05-17 11:05:00,
2013-05-17 06:20:00,61.8,51.0,29.88,SSW,199,0.0,-999.0,69,-99.99,,,0.00,weatherlink.com 1.10,2013-05-17 11:20:00,
2013-05-17 06:35:00,61.8,51.0,29.89,SSW,199,0.0,-999.0,69,-99.99,,,0.00,weatherlink.com 1.10,2013-05-17 11:35:00,
2013-05-17 06:50:00,61.8,51.0,29.89,SSW,199,0.0,-999.0,69,-99.99,,,0.01,weatherlink.com 1.10,2013-05-17 11:50:00,
2013-05-17 07:05:00,61.8,51.0,29.89,SSW,199,0.0,-999.0,69,-99.99,,,0.01,weatherlink.com 1.10,2013-05-17 12:05:00,
2013-05-17 07:20:00,62.2,52.0,29.89,SSW,199,0.0,-999.0,69,-99.99,,,0.01,weatherlink.com 1.10,2013-05-17 12:20:00,
2013-05-17 07:35:00,63.5,53.0,29.90,SSW,199,0.0,-999.0,69,-99.99,,,0.01,weatherlink.com 1.10,2013-05-17 12:35:00,
2013-05-17 07:50:00,63.0,53.0,29.90,SSW,199,0.0,-999.0,69,-99.99,,,0.01,weatherlink.com 1.10,2013-05-17 12:50:00,
2013-05-17 08:05:00,63.1,53.0,29.90,SSW,199,0.0,-999.0,69,-99.99,,,0.01,weatherlink.com 1.10,2013-05-17 13:05:00,
2013-05-17 08:20:00,63.2,53.0,29.91,SSW,199,0.0,-999.0,69,-99.99,,,0.01,weatherlink.com 1.10,2013-05-17 13:20:00,
2013-05-17 08:35:00,63.7,53.0,29.91,SSW,199,0.0,-999.0,69,-99.99,,,0.01,weatherlink.com 1.10,2013-05-17 13:35:00,
2013-05-17 08:50:00,63.5,53.0,29.91,SSW,199,0.0,-999.0,69,-99.99,,,0.01,weatherlink.com 1.10,2013-05-17 13:50:00,
2013-05-17 09:05:00,63.6,53.0,29.91,SSW,199,0.0,-999.0,69,-99.99,,,0.01,weatherlink.com 1.10,2013-05-17 14:05:00,
2013-05-17 09:20:00,63.8,53.0,29.92,SSW,199,0.0,-999.0,68,-99.99,,,0.01,weatherlink.com 1.10,2013-05-17 14:20:00,
2013-05-17 09:35:00,64.0,53.0,29.92,SSW,199,0.0,-999.0,68,-99.99,,,0.01,weatherlink.com 1.10,2013-05-17 14:35:00,
2013-05-17 09:50:00,65.4,55.0,29.92,SSW,199,0.0,-999.0,68,-99.99,,,0.01,weatherlink.com 1.10,2013-05-17 14:50:00,
2013-05-17 10:05:00,65.2,53.0,29.92,SSW,198,0.0,-999.0,66,-99.99,,,0.01,weatherlink.com 1.10,2013-05-17 15:05:00,
2013-05-17 10:20:00,65.8,53.0,29.92,SSW,198,0.0,-999.0,64,-99.99,,,0.01,weatherlink.com 1.10,2013-05-17 15:20:00,
2013-05-17 10:50:00,67.3,54.0,29.93,SSW,198,0.0,-999.0,63,-99.99,,,0.01,weatherlink.com 1.10,2013-05-17 15:50:00,
2013-05-17 11:05:00,67.9,57.0,29.93,SSW,198,0.0,-999.0,68,-99.99,,,0.01,weatherlink.com 1.10,2013-05-17 16:05:00,
2013-05-17 11:20:00,68.2,57.0,29.93,SSW,198,0.0,-999.0,68,-99.99,,,0.01,weatherlink.com 1.10,2013-05-17 16:20:00,
2013-05-17 11:35:00,69.5,60.0,29.93,SSW,198,0.0,-999.0,72,-99.99,,,0.01,weatherlink.com 1.10,2013-05-17 16:35:00,
2013-05-17 11:50:00,69.4,59.0,29.93,SSW,198,0.0,-999.0,70,-99.99,,,0.01,weatherlink.com 1.10,2013-05-17 16:50:00,
2013-05-17 12:05:00,71.5,62.0,29.93,SSW,194,0.0,-999.0,73,-99.99,,,0.01,weatherlink.com 1.10,2013-05-17 17:05:00,
2013-05-17 12:20:00,71.9,62.0,29.93,SSW,194,0.0,-999.0,71,-99.99,,,0.01,weatherlink.com 1.10,2013-05-17 17:20:00,
2013-05-17 12:35:00,72.2,63.0,29.93,SSW,195,0.0,-999.0,73,-99.99,,,0.01,weatherlink.com 1.10,2013-05-17 17:35:00,
2013-05-17 12:50:00,72.7,63.0,29.92,SSW,194,0.0,-999.0,72,-99.99,,,0.01,weatherlink.com 1.10,2013-05-17 17:50:00,
2013-05-17 13:05:00,73.0,63.0,29.92,SSW,194,0.0,-999.0,72,-99.99,,,0.01,weatherlink.com 1.10,2013-05-17 18:05:00,
2013-05-17 13:20:00,73.3,64.0,29.92,SSW,194,0.0,-999.0,72,-99.99,,,0.01,weatherlink.com 1.10,2013-05-17 18:20:00,
2013-05-17 13:35:00,74.2,65.0,29.91,SSW,194,0.0,-999.0,72,-99.99,,,0.01,weatherlink.com 1.10,2013-05-17 18:35:00,
2013-05-17 13:50:00,73.9,64.0,29.91,South,176,0.0,-999.0,72,-99.99,,,0.01,weatherlink.com 1.10,2013-05-17 18:50:00,
2013-05-17 14:05:00,73.7,64.0,29.91,South,176,0.0,-999.0,72,-99.99,,,0.01,weatherlink.com 1.10,2013-05-17 19:05:00,
2013-05-17 14:20:00,73.6,64.0,29.91,South,176,0.0,-999.0,72,-99.99,,,0.01,weatherlink.com 1.10,2013-05-17 19:20:00,
2013-05-17 14:35:00,73.1,63.0,29.90,SSE,154,0.0,-999.0,71,-99.99,,,0.01,weatherlink.com 1.10,2013-05-17 19:35:00,
2013-05-17 14:50:00,72.0,63.0,29.90,SE,134,0.0,-999.0,72,-99.99,,,0.01,weatherlink.com 1.10,2013-05-17 19:50:00,
2013-05-17 15:05:00,71.7,62.0,29.90,SE,132,0.0,-999.0,72,-99.99,,,0.01,weatherlink.com 1.10,2013-05-17 20:05:00,
2013-05-17 15:20:00,72.9,63.0,29.89,SE,132,0.0,-999.0,71,-99.99,,,0.01,weatherlink.com 1.10,2013-05-17 20:20:00,
2013-05-17 15:35:00,73.2,64.0,29.90,SE,132,0.0,-999.0,72,-99.99,,,0.01,weatherlink.com 1.10,2013-05-17 20:35:00,
2013-05-17 15:50:00,72.9,63.0,29.89,SE,128,0.0,-999.0,72,-99.99,,,0.01,weatherlink.com 1.10,2013-05-17 20:50:00,
2013-05-17 16:05:00,72.8,63.0,29.89,SE,128,0.0,-999.0,71,-99.99,,,0.01,weatherlink.com 1.10,2013-05-17 21:05:00,
2013-05-17 16:20:00,73.9,64.0,29.89,SE,128,6.0,-999.0,71,-99.99,,,0.01,weatherlink.com 1.10,2013-05-17 21:20:00,
2013-05-17 16:35:00,74.2,65.0,29.88,SE,128,0.0,-999.0,72,-99.99,,,0.01,weatherlink.com 1.10,2013-05-17 21:35:00,
2013-05-17 16:50:00,74.8,65.0,29.89,SE,128,0.0,-999.0,72,-99.99,,,0.01,weatherlink.com 1.10,2013-05-17 21:50:00,
2013-05-17 17:05:00,74.9,65.0,29.89,SE,128,0.0,-999.0,71,-99.99,,,0.01,weatherlink.com 1.10,2013-05-17 22:05:00,
2013-05-17 17:20:00,74.5,65.0,29.88,SE,127,0.0,-999.0,71,-99.99,,,0.01,weatherlink.com 1.10,2013-05-17 22:20:00,
2013-05-17 17:35:00,74.5,65.0,29.88,SE,127,0.0,-999.0,72,-99.99,,,0.01,weatherlink.com 1.10,2013-05-17 22:35:00,
2013-05-17 17:50:00,74.4,64.0,29.88,SE,127,0.0,-999.0,71,-99.99,,,0.01,weatherlink.com 1.10,2013-05-17 22:50:00,
2013-05-17 18:05:00,74.4,64.0,29.88,SE,127,0.0,-999.0,71,-99.99,,,0.01,weatherlink.com 1.10,2013-05-17 23:05:00,
2013-05-17 18:20:00,74.9,65.0,29.88,SE,127,0.0,-999.0,71,-99.99,,,0.01,weatherlink.com 1.10,2013-05-17 23:20:00,
2013-05-17 18:35:00,75.0,65.0,29.88,SE,127,0.0,-999.0,71,-99.99,,,0.01,weatherlink.com 1.10,2013-05-17 23:35:00,
2013-05-17 18:50:00,73.9,64.0,29.88,SE,127,0.0,-999.0,71,-99.99,,,0.01,weatherlink.com 1.10,2013-05-17 23:50:00,
2013-05-17 19:05:00,73.7,64.0,29.88,SE,140,0.0,-999.0,71,-99.99,,,0.01,weatherlink.com 1.10,2013-05-18 00:05:00,
2013-05-17 19:20:00,73.3,63.0,29.88,SSE,168,0.0,-999.0,70,-99.99,,,0.01,weatherlink.com 1.10,2013-05-18 00:20:00,
2013-05-17 19:35:00,72.8,62.0,29.88,South,178,4.0,-999.0,70,-99.99,,,0.01,weatherlink.com 1.10,2013-05-18 00:35:00,
2013-05-17 19:50:00,72.2,61.0,29.88,South,190,2.0,-999.0,69,-99.99,,,0.01,weatherlink.com 1.10,2013-05-18 00:50:00,
2013-05-17 20:05:00,71.6,61.0,29.88,SSW,197,6.0,-999.0,69,-99.99,,,0.01,weatherlink.com 1.10,2013-05-18 01:05:00,
2013-05-17 20:20:00,71.2,61.0,29.88,SSW,212,4.0,-999.0,69,-99.99,,,0.01,weatherlink.com 1.10,2013-05-18 01:20:00,
2013-05-17 20:35:00,71.0,60.0,29.88,SW,218,4.0,-999.0,68,-99.99,,,0.01,weatherlink.com 1.10,2013-05-18 01:35:00,
2013-05-17 20:50:00,70.8,59.0,29.89,SW,228,6.0,-999.0,67,-99.99,,,0.01,weatherlink.com 1.10,2013-05-18 01:50:00,
2013-05-17 21:05:00,70.6,59.0,29.88,SW,221,4.0,-999.0,67,-99.99,,,0.01,weatherlink.com 1.10,2013-05-18 02:05:00,
2013-05-17 21:20:00,70.4,58.0,29.89,SW,221,6.0,-999.0,66,-99.99,,,0.01,weatherlink.com 1.10,2013-05-18 02:20:00,
2013-05-17 21:35:00,70.4,58.0,29.90,SW,227,3.0,-999.0,65,-99.99,,,0.01,weatherlink.com 1.10,2013-05-18 02:35:00,
2013-05-17 21:50:00,70.2,58.0,29.90,SW,215,4.0,-999.0,65,-99.99,,,0.01,weatherlink.com 1.10,2013-05-18 02:50:00,
2013-05-17 22:05:00,70.3,57.0,29.90,SW,219,7.0,-999.0,64,-99.99,,,0.01,weatherlink.com 1.10,2013-05-18 03:05:00,
2013-05-17 22:20:00,70.4,57.0,29.91,SSW,213,3.0,-999.0,63,-99.99,,,0.01,weatherlink.com 1.10,2013-05-18 03:20:00,
2013-05-17 22:35:00,70.5,58.0,29.92,SW,217,0.0,-999.0,64,-99.99,,,0.01,weatherlink.com 1.10,2013-05-18 03:35:00,
2013-05-17 22:50:00,70.3,57.0,29.92,SW,215,4.0,-999.0,63,-99.99,,,0.01,weatherlink.com 1.10,2013-05-18 03:50:00,
2013-05-17 23:05:00,70.2,56.0,29.93,SSW,209,4.0,-999.0,62,-99.99,,,0.01,weatherlink.com 1.10,2013-05-18 04:05:00,
2013-05-17 23:20:00,70.0,56.0,29.91,SW,224,3.0,-999.0,62,-99.99,,,0.01,weatherlink.com 1.10,2013-05-18 04:20:00,
2013-05-17 23:35:00,69.6,55.0,29.92,SW,232,5.0,-999.0,61,-99.99,,,0.01,weatherlink.com 1.10,2013-05-18 04:35:00,
2013-05-17 23:50:00,69.5,55.0,29.92,SW,222,3.0,-999.0,61,-99.99,,,0.01,weatherlink.com 1.10,2013-05-18 04:50:00,